Etusivu
METAR-TAF:

METAR-TAF

Lentoasemat :

Cambridge Municipal Airport

Cambridge, Minnesota, Yhdysvallat

Leveyspiiri: 45-34N, Pituuspiiri: 093-16W, korkeus merenpinnasta: 287 m

Tämänhetkinen sää

Tämä raportti tehtiin 21 minuuttia sitten, kello 11.35 UTC
Tuuli 6 kn kaakosta
Lämpötila 17°C
Kosteus 68%
Ilmanpaine 1024 hPa
Näkyvyys: 16.1 km
Pilvistä 5500 ft:n korkeudessa

METAR: KCBG 241135Z AUTO 14006KT 10SM OVC055 17/11 A3025 RMK AO2

Aika: 06:56 (11:56 UTC)


TAF: puuttuu

Säähavainnot ja -ennusteet yli 4000 lentoasemalta (METAR- ja TAF-raportit).

Käytössä olevat sääasemat on merkitty karttaan keltaisilla ja punaisilla pisteillä.

Aseta hiiri pisteen päälle nähdäksesi sääaseman nimen.

Klikkaa sitten nähdäksesi säähavainnot ja -ennusteet.

Kartan vaihtaminen: klikkaa mustalla rastilla varustettuja vihreitä pisteitä, niin voit zoomata sisään; viivalla varustettua vihreää pistettä, niin voit zoomata ulos tai vihreitä nuolia, niin pääset viereisille kartoille.


METAR-TAF: